| time (UTC) | temp C | wind direction | speed KPH | gust KPH | rain 1hr cm | rain 24hr cm | rain mn cm | humidity % | barometer mb |
| 20260505084005 | 10 | 54 | 0.0 | 0.0 | 0.00 | 0.00 | 0.00 | 80 | 1010.8 |
| 20260505083005 | 10 | 62 | 0.0 | 0.0 | 0.00 | 0.00 | 0.00 | 80 | 1010.7 |
| 20260505082005 | 11 | 10 | 0.0 | 0.0 | 0.00 | 0.00 | 0.00 | 79 | 1010.7 |
| 20260505080005 | 11 | 1 | 0.0 | 3.2 | 0.00 | 0.00 | 0.00 | 78 | 1010.5 |
| 20260505075018 | 11 | 1 | 3.2 | 3.2 | 0.00 | 0.00 | 0.00 | 78 | 1010.5 |
| 20260505074006 | 11 | 1 | 0.0 | 1.6 | 0.00 | 0.00 | 0.00 | 78 | 1010.5 |
| 20260505073004 | 12 | 1 | 0.0 | 0.0 | 0.00 | 0.00 | 0.00 | 78 | 1010.5 |
| 20260505072005 | 12 | 1 | 0.0 | 3.2 | 0.00 | 0.00 | 0.00 | 78 | 1010.5 |
| 20260505071004 | 12 | 1 | 0.0 | 3.2 | 0.00 | 0.00 | 0.00 | 79 | 1010.4 |
| 20260505070005 | 12 | 1 | 4.8 | 4.8 | 0.00 | 0.00 | 0.00 | 78 | 1010.2 |
| 20260505064005 | 13 | 333 | 0.0 | 3.2 | 0.00 | 0.00 | 0.00 | 78 | 1009.8 |
| 20260505063005 | 13 | 43 | 0.0 | 0.0 | 0.00 | 0.00 | 0.00 | 78 | 1009.7 |
| 20260505062005 | 13 | 300 | 0.0 | 0.0 | 0.00 | 0.00 | 0.00 | 78 | 1009.5 |
| 20260505061005 | 13 | 307 | 0.0 | 0.0 | 0.00 | 0.00 | 0.00 | 78 | 1009.5 |
| 20260505055005 | 14 | 352 | 0.0 | 0.0 | 0.00 | 0.00 | 0.00 | 76 | 1009.3 |
| 20260505054005 | 15 | 20 | 0.0 | 0.0 | 0.00 | 0.00 | 0.00 | 75 | 1009.2 |
| 20260505053005 | 15 | 28 | 0.0 | 3.2 | 0.00 | 0.00 | 0.00 | 72 | 1009.2 |
| 20260505051005 | 15 | 156 | 3.2 | 4.8 | 0.00 | 0.00 | 0.00 | 72 | 1009.2 |
| 20260505041005 | 17 | 77 | 19.3 | 22.5 | 0.00 | 0.00 | 0.00 | 69 | 1008.6 |
| 20260505034005 | 19 | 103 | 9.7 | 19.3 | 0.00 | 0.00 | 0.00 | 56 | 1008.6 |
| 20260505033005 | 19 | 310 | 3.2 | 3.2 | 0.00 | 0.00 | 0.00 | 54 | 1007.9 |
| 20260505032005 | 20 | 89 | 1.6 | 12.9 | 0.00 | 0.00 | 0.00 | 52 | 1007.5 |
| 20260505031004 | 20 | 127 | 9.7 | 14.5 | 0.00 | 0.00 | 0.00 | 48 | 1007.1 |
| 20260505030005 | 20 | 192 | 6.4 | 16.1 | 0.00 | 0.00 | 0.00 | 48 | 1007.2 |
| 20260505025005 | 20 | 104 | 11.3 | 22.5 | 0.00 | 0.00 | 0.00 | 47 | 1007.0 |
| 20260505024004 | 21 | 101 | 9.7 | 25.7 | 0.00 | 0.00 | 0.00 | 47 | 1006.8 |
| 20260505022005 | 21 | 70 | 14.5 | 33.8 | 0.00 | 0.00 | 0.00 | 46 | 1006.8 |
| 20260505021005 | 21 | 67 | 20.9 | 37.0 | 0.00 | 0.00 | 0.00 | 45 | 1006.8 |
| 20260505020005 | 22 | 23 | 11.3 | 32.2 | 0.00 | 0.00 | 0.00 | 43 | 1006.5 |
| 20260505015005 | 22 | 69 | 11.3 | 20.9 | 0.00 | 0.00 | 0.00 | 43 | 1006.4 |
| 20260505014004 | 22 | 57 | 9.7 | 27.4 | 0.00 | 0.00 | 0.00 | 43 | 1006.4 |
| 20260505013004 | 25 | 34 | 19.3 | 37.0 | 0.00 | 0.00 | 0.00 | 36 | 1006.5 |
| 20260505012005 | 26 | 188 | 3.2 | 11.3 | 0.00 | 0.00 | 0.00 | 37 | 1006.0 |
| 20260505011005 | 26 | 155 | 6.4 | 11.3 | 0.00 | 0.00 | 0.00 | 38 | 1005.9 |
| 20260505010005 | 26 | 112 | 6.4 | 9.7 | 0.00 | 0.00 | 0.00 | 38 | 1005.9 |
| 20260505005005 | 26 | 249 | 8.0 | 14.5 | 0.00 | 0.00 | 0.00 | 34 | 1005.8 |
| 20260505003005 | 26 | 195 | 9.7 | 14.5 | 0.00 | 0.00 | 0.00 | 33 | 1005.9 |
| 20260505002005 | 27 | 138 | 3.2 | 12.9 | 0.00 | 0.00 | 0.00 | 35 | 1006.0 |
| 20260505001004 | 27 | 173 | 4.8 | 11.3 | 0.00 | 0.00 | 0.00 | 36 | 1006.0 |
| 20260505000005 | 27 | 62 | 4.8 | 11.3 | 0.00 | 0.00 | 0.00 | 33 | 1005.9 |
| 20260504234005 | 27 | 137 | 6.4 | 11.3 | 0.00 | 0.00 | 0.00 | 32 | 1006.0 |
| 20260504233004 | 27 | 112 | 1.6 | 11.3 | 0.00 | 0.00 | 0.00 | 36 | 1006.2 |
| 20260504232005 | 27 | 125 | 3.2 | 12.9 | 0.00 | 0.00 | 0.00 | 37 | 1006.2 |
| 20260504231005 | 27 | 140 | 3.2 | 19.3 | 0.00 | 0.00 | 0.00 | 34 | 1006.3 |
| 20260504230005 | 27 | 112 | 3.2 | 11.3 | 0.00 | 0.00 | 0.00 | 34 | 1006.3 |
| 20260504224004 | 27 | 356 | 6.4 | 12.9 | 0.00 | 0.00 | 0.00 | 38 | 1006.3 |
| 20260504223005 | 27 | 122 | 1.6 | 16.1 | 0.00 | 0.00 | 0.00 | 29 | 1006.5 |
| 20260504222005 | 27 | 144 | 3.2 | 27.4 | 0.00 | 0.00 | 0.00 | 33 | 1006.7 |
| 20260504221005 | 27 | 328 | 6.4 | 16.1 | 0.00 | 0.00 | 0.00 | 32 | 1006.7 |
| 20260504220006 | 27 | 181 | 9.7 | 14.5 | 0.00 | 0.00 | 0.00 | 35 | 1006.7 |
| 20260504215005 | 27 | 58 | 8.0 | 9.7 | 0.00 | 0.00 | 0.00 | 34 | 1006.9 |
| 20260504214004 | 27 | 114 | 6.4 | 16.1 | 0.00 | 0.00 | 0.00 | 36 | 1007.0 |
| 20260504213005 | 27 | 97 | 4.8 | 12.9 | 0.00 | 0.00 | 0.00 | 34 | 1007.0 |
| 20260504210005 | 27 | 266 | 4.8 | 14.5 | 0.00 | 0.00 | 0.00 | 36 | 1007.2 |
| 20260504205005 | 26 | 194 | 8.0 | 14.5 | 0.00 | 0.00 | 0.00 | 36 | 1007.3 |
| 20260504204005 | 26 | 255 | 8.0 | 11.3 | 0.00 | 0.00 | 0.00 | 35 | 1007.3 |
| 20260504203006 | 26 | 128 | 4.8 | 11.3 | 0.00 | 0.00 | 0.00 | 39 | 1007.4 |
| 20260504201005 | 25 | 105 | 4.8 | 9.7 | 0.00 | 0.00 | 0.00 | 42 | 1007.5 |
| 20260504200005 | 25 | 289 | 3.2 | 11.3 | 0.00 | 0.00 | 0.00 | 38 | 1007.5 |
| 20260504194004 | 24 | 163 | 3.2 | 9.7 | 0.00 | 0.00 | 0.00 | 44 | 1007.7 |
| 20260504193004 | 23 | 105 | 3.2 | 4.8 | 0.00 | 0.00 | 0.00 | 41 | 1007.8 |
| 20260504192006 | 23 | 126 | 3.2 | 9.7 | 0.00 | 0.00 | 0.00 | 41 | 1007.8 |
| 20260504191008 | 23 | 154 | 6.4 | 9.7 | 0.00 | 0.00 | 0.00 | 41 | 1007.9 |
| 20260504190005 | 22 | 191 | 8.0 | 12.9 | 0.00 | 0.00 | 0.00 | 43 | 1008.1 |
| 20260504185005 | 22 | 330 | 4.8 | 11.3 | 0.00 | 0.00 | 0.00 | 40 | 1008.2 |
| 20260504184004 | 22 | 179 | 3.2 | 12.9 | 0.00 | 0.00 | 0.00 | 47 | 1008.2 |
| 20260504183005 | 21 | 209 | 4.8 | 12.9 | 0.00 | 0.00 | 0.00 | 44 | 1008.4 |
| 20260504182004 | 21 | 150 | 4.8 | 11.3 | 0.00 | 0.00 | 0.00 | 46 | 1008.6 |
| 20260504181004 | 21 | 156 | 9.7 | 11.3 | 0.00 | 0.00 | 0.00 | 48 | 1008.6 |
| 20260504175005 | 20 | 120 | 3.2 | 12.9 | 0.00 | 0.00 | 0.00 | 54 | 1008.8 |
| 20260504174004 | 19 | 350 | 6.4 | 11.3 | 0.00 | 0.00 | 0.00 | 50 | 1008.9 |
| 20260504173005 | 18 | 243 | 4.8 | 12.9 | 0.00 | 0.00 | 0.00 | 54 | 1009.1 |
| 20260504172004 | 18 | 233 | 8.0 | 12.9 | 0.00 | 0.00 | 0.00 | 54 | 1009.2 |
| 20260504171004 | 18 | 237 | 6.4 | 11.3 | 0.00 | 0.00 | 0.00 | 55 | 1009.4 |
| 20260504151005 | 11 | 97 | 4.8 | 4.8 | 0.00 | 0.00 | 0.00 | 75 | 1011.1 |
| 20260504141005 | 7 | 93 | 0.0 | 0.0 | 0.00 | 0.00 | 0.00 | 87 | 1011.9 |